Regional Weather Roundup
Issued by NWS Cleveland, OH

Home | Current Version | Previous Version | Graphics & Text | Print | Product List | Glossary On
Versions: 1 2 3 4 5 6 7 8 9 10 11 12 13 14 15 16 17 18 19 20 21 22 23 24 25 26 27 28 29 30 31 32 33 34 35 36 37 38 39 40 41 42 43 44 45 46 47 48 49 50
000
ASUS41 KCLE 221910
RWRCLE
OHIO REGIONAL WEATHER ROUNDUP
NATIONAL WEATHER SERVICE CLEVELAND, OH
300 PM EDT WED OCT 22 2014

NOTE: "FAIR" INDICATES FEW OR NO CLOUDS BELOW 12,000 FEET WITH NO
SIGNIFICANT WEATHER AND/OR OBSTRUCTIONS TO VISIBILITY.

OHZ001>008-015>018-024>027-034-035-043-044-222000-
   NORTHWEST OHIO

CITY           SKY/WX    TMP DP  RH WIND       PRES   REMARKS
DEFIANCE       CLOUDY    48  39  71 N7        30.32F
FINDLAY        CLOUDY    50  40  68 N9        30.29F
TOLEDO EXPRESS PTSUNNY   51  40  65 N9        30.31F
TOLEDO EXEC    PTSUNNY   53  40  61 NE5       30.30F
LIMA           CLOUDY    49  41  74 N8        30.30F
$$

OHZ009>014-019>023-028>033-038-089-222000-
   NORTHEAST OHIO

CITY           SKY/WX    TMP DP  RH WIND       PRES   REMARKS
CLE-HOPKINS    CLOUDY    50  42  74 N12       30.27F
CLE-LAKEFRONT  CLOUDY    50  43  77 N13       30.24F
CUY CO. ARPT   CLOUDY    50  45  81 N9        30.25F
LORAIN-ELYRIA    N/A     50  41  71 NE10      30.26F
ASHTABULA      CLOUDY    50  42  74 N8        30.23S
AKRON-CANTON   CLOUDY    51  41  68 N13       30.21F
WOOSTER        CLOUDY    50  43  77 N13       30.24F
MANSFIELD      CLOUDY    49  41  74 N10       30.24F
YOUNGSTOWN     CLOUDY    50  42  74 N15       30.19F
$$

OHZ042-051>053-060>062-070>072-077>081-222000-
  SOUTHWEST OHIO

CITY           SKY/WX    TMP DP  RH WIND       PRES   REMARKS
CINC-COVINGTON CLOUDY    54  39  57 N12       30.27S
CINC-LUNKEN    CLOUDY    53  42  66 VRB6      30.29F
HAMILTON       CLOUDY    53  42  66 N5        30.29F
DAYTON         CLOUDY    52  41  66 N9        30.29F
WRIGHT-PAT AFB CLOUDY    51  42  71 N9        30.27F
DAYTON GENERAL CLOUDY    51  41  68 N9        30.27F
WILMINGTON     CLOUDY    51  40  65 N7        30.26F
$$

OHZ036-037-039>041-045>050-054>059-063>069-073>076-082>088-222000-
  CENTRAL AND SOUTHEAST OHIO

CITY           SKY/WX    TMP DP  RH WIND       PRES   REMARKS
COLUMBUS       CLOUDY    50  41  71 N12       30.25F
OSU AIRPORT    CLOUDY    50  41  71 NW12      30.26S
BOLTON FIELD   CLOUDY    50  43  76 N10         N/A
RICKENBACK AFB CLOUDY    49  42  76 N8        30.25F
NEWARK         CLOUDY    50  41  71 N7        30.24S
MARION         CLOUDY    50  41  71 N14       30.27F
LANCASTER      CLOUDY    51  41  68 N7        30.25S
ZANESVILLE     CLOUDY    50  42  74 N6        30.22S
NEW PHILLY     CLOUDY    51  42  71 NW10G18   30.21F
$$



USA.gov is the U.S. government's official web portal to all federal, state and local government web resources and services.